EHI
0 0 0 0 0 0 0 0 0 0 0 0 0 0 0 0 0 0 0 0 0 0 0 0 0 0 0 0 0 0 0 0 0 0 0 0 0 0 0 0 0 0 0
0 0 0 0 0 0 0 0 0 0 0 0 0 0 0 0 0 0 0 0 0 0 0 0 0 0 0 0 0 0 0 0 0 0 0 0 0 0 0 0 0 0 0
0 0 0 0 0 0 0 0 0 0 0 0 0 0 0 0 0 0 0 0 0 0 0 0 0 0 0 0 0 0 0 0 0 0 0 0 0 0 0 0 0 0 0
0 0 0 0 0 0 0 0 0 0 0 0 0 0 0 0 0 0 0 0 0 0 0 0 0 0 0 0 0 0 0 0 0 0 0 0 0 0 0 0 0 0 0
0 0 0 0 0 0 0 0 0 0 0 0 0 0 0 0 0 0 0 0 0 0 0 0 0 0 0 0 0 0 0 0 0 0 0 0 0 0 0 0 0 0 0
0 0 0 0 0 0 0 0 0 0 0 0 0 0 0 0 0 0 0 0 0 0 0 0 0 0 0 0 0 0 0 0 0 0 0 0 0 0 0 0 0 0 0
0 0 0 0 0 0 0 0 0 0 0 0 0 0 0 0 0 0 0 0 0 0 0 0 0 0 0 0 0 0 0 0 0 0 0 0 0 0 0 0 0 0 0
0 0 0 0 0 0 0 0 0 0 0 0 0 0 0 0 0 0 0 0 0 0 0 0 0 0 0 0 0 0 0 0 0 0 0 0 0 0 0 0 0 0 0
0 0 0 0 0 0 0 0 0 0 0 0 0 0 0 0 0 0 0 0 0 0 0 0 0 0 0 0 0 0 0 0 0 0 0 0 0 0 0 0 0 0 0
0 0 0 0 0 0 0 0 0 0 0 0 0 0 0 0 0 0 0 0 0 0 0 0 0 0 0 0 0 0 0 0 0 0 0 0 0 0 0 0 0 0 0
0 0 0 0 0 0 0 0 0 0 0 0 0 0 0 0 0 0 0 0 0 0 0 0 0 0 0 0 0 0 0 0 0 0 0 0 0 0 0 0 0 0 0
0 0 0 0 0 0 0 0 0 0 0 0 0 0 0 0 0 0 0 0 0 0 0 0 0 0 0 0 0 0 0 0 0 0 0 0 0 0 0 0 0 0 0
0 0 0 0 0 0 0 0 0 0 0 0 0 0 0 0 0 0 0 0 0 0 0 0 0 0 0 0 0 0 0 0 0 0 0 0 0 0 0 0 0 0 0
0 0 0 0 0 0 0 0 0 0 0 0 0 0 0 0 0 0 0 0 0 0 0 0 0 0 0 0 0 0 0 0 0 0 0 0 0 0 0 0 0 0 0
0 0 0 0 0 0 0 0 0 0 0 0 0 0 0 0 0 0 0 0 0 0 0 0 0 0 0 0 0 0 0 0 0 0 0 0 0 0 0 0 0 0 0
0 0 0 0 0 0 0 0 0 0 0 0 0 0 0 0 0 0 0 0 0 0 0 0 0 0 0 0 0 0 0 0 0 0 0 0 0 0 0 0 0 0 0
0 0 0 0 0 0 0 0 0 0 0 0 0 0 0 0 0 0 0 0 0 0 0 0 0 0 0 0 0 0 0 0 0 0 0 0 0 0 0 0 0 0 0
0 0 0 0 0 0 0 0 0 0 0 0 0 0 0 0 0 0 0 0 0 0 0 0 0 0 0 0 0 0 0 0 0 0 0 0 0 0 0 0 0 0 0
0 0 0 0 0 0 0 0 0 0 0 0 0 0 0 0 0 0 0 0 0 0 0 0 0 0 0 0 0 0 0 0 0 0 0 0 0 0 0 0 0 0 0
0 0 0 0 0 0 0 0 0 0 0 0 0 0 0 0 0 0 0 0 0 0 0 0 0 0 0 0 0 0 0 0 0 0 0 0 0 0 0 0 0 0 0
0 0 0 0 0 0 0 0 0 0 0 0 0 0 0 0 0 0 0 0 0 0 0 0 0 0 0 0 0 0 0 0 0 0 0 0 0 0 0 0 0 0 0
0 0 0 0 0 0 0 0 0 0 0 0 0 0 0 0 0 0 0 0 0 0 0 0 0 0 0 0 0 0 0 0 0 0 0 0 0 0 0 0 0 0 0
0 0 0 0 0 0 0 0 0 0 0 0 0 0 0 0 0 0 0 0 0 0 0 0 0 0 0 0 0 0 0 0 0 0 0 0 0 0 0 0 0 0 0
0 0 0 0 0 0 0 0 0 0 0 0 0 0 0 0 0 0 0 0 0 0 0 0 0 0 0 0 0 0 0 0 0 0 0 0 0 0 0 0 0 0 0
0 0 0 0 0 0 0 0 0 0 0 0 0 0 0 0 0 0 0 0 0 0 0 0 0 0 0 0 0 0 0 0 0 0 0 0 0 0 0 0 0 0 0
0 0 0 0 0 0 0 0 0 0 0 0 0 0 0 0 0 0 0 0 0 0 0 0 0 0 0 0 0 0 0 0 0 0 0 0 0 0 0 0 0 0 0
Wind_Speed
10 14 24 25 26 27 27 27 27 27 27 27 27 27 27 27 27 27 27 27 27 27 26 26 26 25 25 24 22 19 17 15 13 11 9 9 9 7 6 5 5 3 6
10 14 23 25 26 26 26 26 27 27 27 27 27 27 27 27 26 26 27 27 27 27 26 26 26 25 25 25 24 23 20 17 15 13 10 8 9 9 9 7 7 5 8
12 14 17 25 25 26 26 26 26 26 26 27 27 27 27 27 27 27 27 27 27 27 26 26 26 25 25 25 24 24 23 21 18 15 12 5 6 10 11 9 9 9 10
11 13 16 25 25 26 26 26 26 26 26 26 27 26 26 27 27 26 27 27 27 26 26 26 26 26 26 25 25 24 23 23 22 18 8 5 5 10 12 11 11 11 11
9 12 17 26 25 25 26 26 26 26 26 26 26 26 26 27 27 26 27 27 27 27 26 26 26 26 26 26 25 25 24 23 23 17 8 6 5 11 14 13 12 13 12
9 11 17 26 25 25 25 26 26 26 26 26 26 26 26 26 27 26 26 27 26 26 26 26 26 26 26 26 26 25 25 24 20 11 9 7 6 12 16 15 14 14 15
8 10 15 25 25 25 25 26 26 26 26 25 26 26 26 27 26 26 26 26 26 26 26 26 26 26 26 26 26 25 26 26 15 11 10 8 8 15 17 17 17 16 17
8 10 13 23 25 24 24 25 25 25 25 25 26 26 26 27 27 26 27 27 26 26 25 26 26 26 26 26 25 25 26 24 16 13 12 10 13 17 18 19 19 18 19
7 9 11 12 15 21 23 24 25 24 25 25 25 26 26 27 27 26 27 27 26 26 25 26 26 26 26 25 25 25 26 24 14 11 13 10 16 18 19 19 19 20 19
6 8 9 9 11 11 11 21 24 23 24 24 24 25 25 24 24 25 25 26 26 26 25 26 26 26 26 25 25 25 25 18 12 14 9 11 20 22 20 19 19 20 20
9 7 9 9 10 11 9 15 16 18 20 20 17 23 20 11 11 14 21 25 26 26 26 26 26 26 25 22 25 25 20 9 13 10 9 17 24 24 23 21 19 19 21
10 8 7 8 8 8 9 7 6 8 9 9 9 10 9 9 10 14 20 23 24 25 25 25 26 22 18 11 16 19 9 12 9 9 11 23 25 24 24 23 21 20 20
5 6 6 6 7 7 6 6 4 5 5 6 8 9 8 7 7 8 7 10 12 16 11 16 15 11 11 11 11 11 11 10 8 9 12 24 25 25 25 24 23 21 20
5 6 5 5 6 6 5 5 4 5 5 5 7 9 7 6 7 8 7 8 7 7 10 9 9 12 12 13 13 13 13 10 9 9 11 23 25 26 26 25 23 22 21
5 6 5 4 6 6 5 5 6 5 5 6 6 7 8 6 7 8 7 7 8 8 9 10 10 13 13 13 12 13 14 14 13 12 10 22 26 26 25 25 24 23 22
4 6 6 4 6 6 5 5 4 5 5 5 5 7 9 6 7 8 8 7 7 8 9 9 11 11 11 11 13 14 14 14 12 12 11 15 23 24 24 24 23 23 22
4 5 7 5 6 6 6 6 6 5 6 6 6 7 8 8 7 7 7 7 7 8 9 9 10 9 10 11 13 14 13 12 13 14 14 11 12 18 22 22 22 22 22
4 5 6 7 6 6 6 6 5 5 6 5 6 6 8 8 9 7 7 6 7 8 8 9 8 10 10 11 11 12 12 12 14 14 12 11 10 10 14 20 21 21 21
4 5 6 6 6 7 7 6 6 5 6 5 6 6 7 9 9 8 7 6 8 7 7 9 9 9 11 12 12 12 11 12 13 13 12 12 10 9 7 14 19 19 19
3 5 5 6 6 6 5 5 4 5 5 5 5 6 9 8 10 9 7 7 8 7 6 8 10 10 10 11 13 13 12 14 12 9 10 8 8 8 8 10 9 12 17
4 5 5 6 7 6 4 5 6 6 6 5 5 8 10 10 10 9 8 8 8 8 8 9 10 11 9 9 11 13 11 11 10 5 5 6 6 7 9 10 8 8 8
4 5 6 7 7 6 5 5 4 6 5 5 6 7 9 10 11 11 10 9 9 8 9 9 10 9 9 8 9 11 8 6 4 8 6 5 5 8 11 12 11 10 9
4 6 7 7 7 7 7 5 7 4 4 4 6 5 6 10 11 11 11 10 9 8 8 9 9 10 10 9 6 7 7 6 11 6 5 5 7 8 9 10 12 12 12
4 5 6 6 7 7 7 6 8 8 9 9 6 7 9 10 11 11 11 11 10 9 9 10 9 8 9 9 8 7 9 10 9 8 4 4 7 9 9 11 12 12 11
4 5 5 6 6 7 7 7 7 7 6 8 8 9 8 8 9 11 12 10 10 10 10 10 11 9 7 8 8 9 10 9 10 9 11 8 7 6 7 10 10 9 9
4 4 5 6 7 7 8 8 8 9 10 11 12 9 9 8 8 9 13 10 10 10 11 11 10 10 9 9 9 8 9 8 8 8 10 12 11 8 9 9 9 8 7
Wind_Direction
341 342 357 9 13 15 15 16 16 16 15 15 14 14 13 11 11 11 9 7 6 4 2 1 360 359 358 356 351 342 332 324 317 310 305 300 294 281 253 228 231 242 211
341 347 360 12 14 15 16 16 16 15 15 14 13 12 11 10 9 9 7 5 3 2 0 359 358 357 357 356 354 349 339 326 317 308 298 291 288 284 269 237 229 236 223
355 352 356 13 14 16 16 16 16 15 14 13 12 11 10 9 7 7 5 3 1 360 358 357 356 355 354 353 350 348 345 339 324 312 302 283 274 276 270 251 234 238 226
357 358 1 15 15 16 16 16 16 14 14 13 12 10 10 8 6 6 4 1 359 358 356 355 353 352 351 349 347 345 344 343 339 323 307 277 262 272 269 257 240 237 228
3 6 3 17 16 16 16 16 15 14 13 12 11 10 9 7 4 4 2 359 357 356 354 353 352 350 348 347 345 343 342 342 339 333 313 288 266 271 271 263 248 238 231
15 10 6 18 16 15 15 15 13 13 12 12 11 9 8 6 2 1 0 357 355 353 352 351 349 348 346 345 343 342 342 340 337 328 317 297 273 272 270 263 253 242 234
25 20 13 18 16 14 14 15 13 13 11 11 10 9 8 5 1 360 359 355 353 351 350 349 347 346 345 344 342 342 341 339 335 331 323 307 288 282 273 264 255 246 235
31 27 22 17 17 14 13 15 12 12 11 11 9 8 7 3 360 359 358 352 351 350 348 348 345 344 343 342 341 341 340 337 337 333 324 311 300 293 280 267 258 251 239
38 33 24 17 14 12 11 14 12 12 10 10 8 6 5 2 358 357 355 350 351 349 348 347 345 343 342 341 340 339 338 337 345 330 320 317 315 309 294 278 264 254 245
45 38 25 15 14 6 3 12 11 11 9 10 6 4 4 360 355 354 351 348 350 348 348 345 344 342 342 340 338 336 337 340 336 323 318 313 321 319 311 296 277 260 250
34 34 26 17 13 5 4 10 7 7 5 6 2 1 360 350 343 351 344 347 348 346 347 343 342 342 342 337 334 334 338 331 325 318 315 314 320 318 314 309 296 274 255
16 16 25 13 8 4 5 360 357 359 354 352 351 352 349 344 341 351 342 345 347 344 345 341 341 342 339 330 328 332 326 322 318 316 311 314 314 314 314 310 303 291 267
4 0 8 8 2 4 359 354 359 350 346 345 346 348 344 339 339 341 335 339 339 341 339 336 335 333 328 326 321 319 317 319 314 310 307 308 310 312 310 307 303 294 282
4 348 350 5 2 359 353 344 357 346 343 344 341 343 345 341 339 337 333 330 334 335 331 330 326 324 323 320 316 314 314 312 307 304 300 306 309 308 305 302 298 293 284
1 342 341 4 4 354 352 346 358 338 339 334 334 341 344 339 335 333 328 327 328 330 328 325 324 321 321 318 315 313 311 308 302 299 301 303 303 304 302 299 295 291 283
352 342 336 7 4 351 350 341 339 334 331 329 332 334 338 334 330 330 325 322 326 328 325 322 317 316 317 315 312 312 307 301 297 297 296 299 300 300 300 298 294 289 284
352 340 338 4 3 350 348 344 345 330 329 328 329 326 327 329 326 325 321 319 324 323 321 322 314 318 316 314 311 307 303 299 297 296 296 292 292 297 299 299 297 292 284
352 334 330 349 351 348 348 338 328 324 322 319 319 319 319 324 324 323 318 314 319 320 321 321 321 325 317 314 310 306 302 299 297 293 291 288 288 289 297 303 302 297 288
339 318 321 329 343 346 340 331 320 316 314 312 313 313 320 322 323 320 312 309 319 317 318 320 326 320 317 315 310 304 302 298 291 289 289 288 285 289 297 311 313 310 298
321 311 315 329 341 339 331 324 317 313 309 308 309 312 321 321 321 319 309 313 317 315 315 316 317 317 312 312 310 305 298 288 281 279 282 289 295 305 322 320 317 315 313
315 327 333 343 341 343 339 336 328 325 317 310 308 318 318 318 318 314 314 315 314 312 314 314 317 315 315 316 314 313 294 277 271 284 291 295 304 326 329 327 323 322 316
321 334 340 344 335 336 330 317 303 307 301 301 307 307 311 318 320 321 318 315 312 310 311 312 315 311 317 326 316 314 310 304 342 323 301 307 329 338 331 327 319 321 317
336 339 340 330 330 329 327 321 322 304 301 316 321 305 313 318 317 315 313 313 309 306 307 307 304 312 314 311 303 302 306 318 325 283 287 316 337 327 321 316 316 317 311
342 336 331 327 328 327 330 332 334 339 331 327 321 317 319 316 316 317 316 312 307 306 302 301 312 303 301 305 304 282 287 296 295 305 304 316 318 318 314 316 312 306 306
348 333 328 329 327 328 331 329 326 320 310 316 319 317 316 315 314 316 316 310 307 305 300 296 297 293 291 290 293 292 291 287 275 285 301 313 313 302 303 305 298 299 304
337 332 336 339 331 329 329 326 321 317 319 326 329 326 325 320 314 309 314 307 304 302 298 296 292 289 287 283 282 281 285 288 293 294 296 307 309 309 304 296 294 297 304